Flag for Canada Weather past 2 weeks in Kirkland Lake, Ontario, Canada

Now
21 °F

Overcast.


Feels Like: 9 °F
Forecast: -3 / 13 °F
Wind: 12 mph from Southwest

Location: Earlton

Current Time: Mar 1, 2015 at 7:07:36 PM

Latest Report: Mar 1, 2015 at 6:00 PM


Visibility: 9 mi

Pressure: 30.06 "Hg

Humidity: 74%

Dew point: 14 °F

Location of Kirkland LakeLocation

Historic Weather in Kirkland Lake — Graph

°F

Kirkland Lake temperature yesterday

Maximum temperature yesterday: 25 °F (at 3:00 PM)
Minimum temperature yesterday: -2 °F (at 6:00 AM)
Average temperature yesterday: 11 °F

Past Weeks' High & Low Weather Summary

 TemperatureHumidityPressure
High25 °F (Feb 28, 3:00 PM)100% (Feb 21, 7:00 PM)30.54 "Hg (Feb 21, 7:00 PM)
Low-27 °F (Feb 15, 7:00 AM)42% (Feb 28, 2:00 PM)29.38 "Hg (Feb 24, 4:03 PM)
Average-4 °F73%30.13 "Hg
* Reported Feb 14 5:00 PM — Mar 1 5:00 PM, Kirkland Lake, Weather by CustomWeather, © 2015

Note: Actual official high and low records may vary slightly from our data, if they occured in-between our weather recording intervals... More about our weather records

Advertising

Kirkland Lake weather history for previous 24 hours

 ConditionsComfort  
Time TempWeatherWind HumidityBarometerVisibility
5:00 PM
Sun, Mar 1
21 °FMostly cloudy.14 mph74%30.07 "Hg9 mi
4:00 PM21 °FLight snow. Overcast.21 mph74%30.09 "Hg9 mi
3:00 PM21 °FOvercast.20 mph68%30.10 "Hg9 mi
2:00 PM21 °FPartly sunny.21 mph63%30.14 "Hg9 mi
1:00 PM19 °FOvercast.20 mph68%30.17 "Hg9 mi
12:00 PM16 °FBroken clouds.15 mph73%30.21 "Hg9 mi
11:00 AM14 °FPartly sunny.13 mph79%30.27 "Hg9 mi
10:00 AM10 °FLight snow. Broken clouds.18 mph92%30.30 "Hg9 mi
9:00 AM7 °FPartly sunny.9 mph85%30.33 "Hg9 mi
8:00 AM1 °FLight snow. Overcast.10 mph92%30.33 "Hg9 mi
7:04 AM0 °FLight snow. Scattered clouds.8 mph92%30.35 "Hg8 mi
6:00 AM1 °FPassing clouds.8 mph92%30.38 "Hg9 mi
5:00 AM3 °FLight snow. Passing clouds.10 mph92%30.40 "Hg9 mi
4:49 AM3 °FLight snow. Passing clouds.12 mph92%30.40 "Hg9 mi
4:00 AM5 °FLight snow. Passing clouds.10 mph85%30.41 "Hg9 mi
3:00 AM3 °FPassing clouds.10 mph92%30.43 "Hg9 mi
2:00 AM5 °FClear.8 mph85%30.46 "Hg9 mi
1:00 AM5 °FClear.9 mph85%30.46 "Hg9 mi
12:00 AM9 °FPassing clouds.7 mph72%30.48 "Hg9 mi
11:00 PM
Sat, Feb 28
10 °FPassing clouds.8 mph72%30.49 "Hg9 mi
10:00 PM14 °FPassing clouds.14 mph67%30.49 "Hg9 mi
9:00 PM16 °FPassing clouds.16 mph62%30.49 "Hg9 mi
8:00 PM18 °FPassing clouds.16 mph62%30.49 "Hg9 mi
7:00 PM18 °FPassing clouds.15 mph62%30.49 "Hg9 mi
Weather by CustomWeather, © 2015

See weather overviewHow to use our weather pages